Big Bear Station Historical Data
Daily Summary for March 9, 2017 Units:  English    Metric   Both
« Previous Day
Next Day »
Daily Weekly Monthly Yearly Custom
  High: Low: Average:
Temperature: 61.3 °F 28.2 °F 42.1 °F
Dew Point: 34.0 °F 26.2 °F 29.9 °F
Humidity: 94 % 31 % 67 %
Wind Speed: 4.2 mph 0.0 mph 1 mph
Wind Gust: -999.0 mph - -
Wind:- - West
Pressure: 30.30 in 30.25 in -
Precipitation: 0.00 in    
Historical Graphs
 
 
Tabular Data for March 9, 2017
Time Temperature Dew Point Pressure Wind Wind Speed Wind Gust Humidity Rainfall Rate (Hourly)
00:01 32.0 °F 27.1 °F 30.28 in Calm   -999.0 mph 82 % 0 in
00:16 31.8 °F 27.2 °F 30.28 in Calm   -999.0 mph 83 % 0 in
00:31 32.0 °F 27.7 °F 30.28 in Calm   -999.0 mph 84 % 0 in
01:02 30.9 °F 27.2 °F 30.28 in Calm   -999.0 mph 86 % 0 in
01:17 30.7 °F 27.0 °F 30.28 in Calm   -999.0 mph 86 % 0 in
01:32 30.7 °F 27.0 °F 30.28 in Calm   -999.0 mph 86 % 0 in
01:47 30.6 °F 26.9 °F 30.27 in Calm   -999.0 mph 86 % 0 in
02:03 30.4 °F 27.0 °F 30.27 in Calm   -999.0 mph 87 % 0 in
02:18 30.0 °F 26.6 °F 30.27 in Calm   -999.0 mph 87 % 0 in
02:33 29.8 °F 27.0 °F 30.26 in Calm   -999.0 mph 89 % 0 in
02:48 29.5 °F 26.7 °F 30.26 in Calm   -999.0 mph 89 % 0 in
03:03 29.7 °F 27.1 °F 30.25 in Calm   -999.0 mph 90 % 0 in
03:19 29.7 °F 27.4 °F 30.26 in Calm   -999.0 mph 91 % 0 in
03:34 29.1 °F 26.8 °F 30.25 in Calm   -999.0 mph 91 % 0 in
03:49 29.5 °F 27.5 °F 30.25 in Calm   -999.0 mph 92 % 0 in
04:04 29.7 °F 27.7 °F 30.25 in Calm   -999.0 mph 92 % 0 in
04:19 29.1 °F 27.1 °F 30.26 in Calm   -999.0 mph 92 % 0 in
04:35 29.1 °F 27.1 °F 30.25 in Calm   -999.0 mph 92 % 0 in
04:50 29.1 °F 27.1 °F 30.26 in Calm   -999.0 mph 92 % 0 in
05:05 28.8 °F 26.8 °F 30.26 in Calm   -999.0 mph 92 % 0 in
05:20 28.6 °F 26.6 °F 30.25 in Calm   -999.0 mph 92 % 0 in
05:35 28.8 °F 27.0 °F 30.26 in Calm   -999.0 mph 93 % 0 in
05:51 28.4 °F 26.9 °F 30.26 in Calm   -999.0 mph 94 % 0 in
06:06 28.6 °F 26.8 °F 30.26 in Calm   -999.0 mph 93 % 0 in
06:21 28.2 °F 26.2 °F 30.26 in Calm   -999.0 mph 92 % 0 in
06:36 28.2 °F 26.2 °F 30.26 in Calm   -999.0 mph 92 % 0 in
06:51 28.9 °F 27.4 °F 30.27 in Calm   -999.0 mph 94 % 0 in
07:07 29.7 °F 27.7 °F 30.28 in Calm   -999.0 mph 92 % 0 in
07:22 29.7 °F 27.9 °F 30.28 in Calm   -999.0 mph 93 % 0 in
07:37 31.1 °F 28.5 °F 30.28 in Calm   -999.0 mph 90 % 0 in
07:52 31.8 °F 29.2 °F 30.29 in Calm   -999.0 mph 90 % 0 in
08:08 33.1 °F 30.5 °F 30.29 in Calm   -999.0 mph 90 % 0 in
08:23 33.8 °F 31.7 °F 30.29 in Calm   -999.0 mph 92 % 0 in
08:38 35.1 °F 32.2 °F 30.29 in Calm   -999.0 mph 89 % 0 in
08:53 37.4 °F 29.5 °F 30.29 in Calm   -999.0 mph 73 % 0 in
09:08 40.6 °F 28.2 °F 30.29 in Calm   -999.0 mph 61 % 0 in
09:24 44.8 °F 28.7 °F 30.29 in Calm   -999.0 mph 53 % 0 in
09:39 46.8 °F 31.5 °F 30.29 in Calm   -999.0 mph 55 % 0 in
09:54 52.3 °F 28.7 °F 30.29 in Calm   -999.0 mph 40 % 0 in
10:09 54.7 °F 29.6 °F 30.29 in Calm   -999.0 mph 38 % 0 in
10:24 57.7 °F 28.0 °F 30.29 in Calm   -999.0 mph 32 % 0 in
10:40 58.1 °F 31.3 °F 30.29 in NW 1.7 mph -999.0 mph 36 % 0 in
10:55 59.5 °F 29.6 °F 30.29 in NW 2.7 mph -999.0 mph 32 % 0 in
11:10 59.9 °F 30.7 °F 30.29 in NNW 3.2 mph -999.0 mph 33 % 0 in
11:25 60.6 °F 29.8 °F 30.29 in WNW 3.2 mph -999.0 mph 31 % 0 in
11:40 60.6 °F 30.6 °F 30.29 in NNW 2.7 mph -999.0 mph 32 % 0 in
11:56 59.9 °F 32.2 °F 30.29 in NNW 3.2 mph -999.0 mph 35 % 0 in
12:11 60.3 °F 31.8 °F 30.28 in SSW 3.2 mph -999.0 mph 34 % 0 in
12:26 59.9 °F 31.5 °F 30.28 in NNW 3.2 mph -999.0 mph 34 % 0 in
12:42 59.9 °F 32.9 °F 30.28 in NW 3.2 mph -999.0 mph 36 % 0 in
12:57 59.5 °F 32.5 °F 30.27 in NW 3.2 mph -999.0 mph 36 % 0 in
13:12 59.4 °F 31.0 °F 30.27 in North 3.7 mph -999.0 mph 34 % 0 in
13:28 61.2 °F 31.9 °F 30.27 in NW 4.2 mph -999.0 mph 33 % 0 in
13:43 59.5 °F 29.6 °F 30.27 in NE 2.7 mph -999.0 mph 32 % 0 in
13:58 61.3 °F 30.4 °F 30.27 in SSE 1.7 mph -999.0 mph 31 % 0 in
14:13 59.0 °F 29.9 °F 30.27 in North 3.7 mph -999.0 mph 33 % 0 in
14:28 59.4 °F 31.0 °F 30.27 in NNW 2.7 mph -999.0 mph 34 % 0 in
14:44 58.5 °F 30.9 °F 30.27 in NNW 3.2 mph -999.0 mph 35 % 0 in
14:59 57.6 °F 30.1 °F 30.26 in NW 3.2 mph -999.0 mph 35 % 0 in
15:14 57.9 °F 31.8 °F 30.27 in NW 3.2 mph -999.0 mph 37 % 0 in
15:29 57.7 °F 31.6 °F 30.27 in WNW 2.2 mph -999.0 mph 37 % 0 in
15:44 57.2 °F 31.8 °F 30.27 in NW 3.7 mph -999.0 mph 38 % 0 in
16:00 57.0 °F 31.6 °F 30.27 in NW 3.7 mph -999.0 mph 38 % 0 in
16:15 57.7 °F 32.3 °F 30.27 in NW 3.2 mph -999.0 mph 38 % 0 in
16:31 58.1 °F 32.6 °F 30.27 in NW 3.2 mph -999.0 mph 38 % 0 in
16:46 55.9 °F 32.5 °F 30.27 in NW 2.7 mph -999.0 mph 41 % 0 in
17:01 54.1 °F 32.1 °F 30.27 in Calm   -999.0 mph 43 % 0 in
17:16 53.2 °F 32.9 °F 30.27 in Calm   -999.0 mph 46 % 0 in
17:31 51.6 °F 33.1 °F 30.27 in Calm   -999.0 mph 49 % 0 in
17:47 49.5 °F 34.0 °F 30.27 in South 2.2 mph -999.0 mph 55 % 0 in
18:03 48.4 °F 33.0 °F 30.28 in South 2.2 mph -999.0 mph 55 % 0 in
18:18 46.9 °F 32.9 °F 30.28 in South 1.7 mph -999.0 mph 58 % 0 in
18:33 45.0 °F 33.2 °F 30.28 in Calm   -999.0 mph 63 % 0 in
18:48 43.7 °F 33.5 °F 30.29 in Calm   -999.0 mph 67 % 0 in
19:03 42.4 °F 32.6 °F 30.29 in Calm   -999.0 mph 68 % 0 in
19:19 41.4 °F 33.1 °F 30.29 in South 1.7 mph -999.0 mph 72 % 0 in
19:34 40.3 °F 31.6 °F 30.29 in Calm   -999.0 mph 71 % 0 in
19:49 39.6 °F 31.3 °F 30.29 in Calm   -999.0 mph 72 % 0 in
20:04 38.7 °F 31.1 °F 30.29 in Calm   -999.0 mph 74 % 0 in
20:19 38.1 °F 30.9 °F 30.30 in Calm   -999.0 mph 75 % 0 in
20:35 37.9 °F 31.0 °F 30.30 in South 1.7 mph -999.0 mph 76 % 0 in
20:50 37.2 °F 31.0 °F 30.30 in South 1.7 mph -999.0 mph 78 % 0 in
21:05 36.7 °F 30.8 °F 30.30 in Calm   -999.0 mph 79 % 0 in
21:20 36.3 °F 31.0 °F 30.30 in South 2.2 mph -999.0 mph 81 % 0 in
21:35 35.8 °F 30.8 °F 30.30 in Calm   -999.0 mph 82 % 0 in
21:51 35.4 °F 31.0 °F 30.30 in South 1.7 mph -999.0 mph 84 % 0 in
22:06 34.7 °F 30.7 °F 30.30 in Calm   -999.0 mph 85 % 0 in
22:22 34.7 °F 30.9 °F 30.30 in Calm   -999.0 mph 86 % 0 in
22:37 34.3 °F 30.3 °F 30.30 in Calm   -999.0 mph 85 % 0 in
22:52 34.0 °F 30.5 °F 30.30 in Calm   -999.0 mph 87 % 0 in
23:07 33.4 °F 30.5 °F 30.30 in Calm   -999.0 mph 89 % 0 in
23:23 33.4 °F 30.5 °F 30.29 in Calm   -999.0 mph 89 % 0 in
23:38 32.7 °F 29.8 °F 30.29 in Calm   -999.0 mph 89 % 0 in
23:53 32.4 °F 29.2 °F 30.29 in Calm   -999.0 mph 88 % 0 in
Big Bear CA Weather
Compliments of Weather Underground - 1.5 mb